Regional Weather Roundup
Issued by NWS

Home | Current Version | Previous Version | Text Only | Print | Product List | Glossary On
Versions: 1 2 3 4 5 6 7 8 9 10 11 12 13 14 15 16 17 18 19 20 21 22 23 24 25 26 27 28 29 30 31 32 33 34 35 36 37 38 39 40 41 42 43 44 45 46 47 48 49 50
000
ASUS45 KABQ 060610
RWRNM
WEATHER ROUNDUP FOR NEW MEXICO
NATIONAL WEATHER SERVICE ALBUQUERQUE NM
1200 AM MDT WED MAY 06 2015

NOTE: "FAIR" MEANS FEW OR NO CLOUDS BELOW 12,000 FEET AGL WITH NO
       SIGNIFICANT WEATHER OR OBSTRUCTIONS TO VISION.

      THIS PRODUCT IS RELEASED AS TWO VERSIONS.  ONE VERSION NEAR
      THE TOP OF THE HOUR CONTAINING PRELIMINARY DATA FROM ALBUQUERQUE
      AND OTHER STATIONS.  A FINAL VERSION WITH ADDITIONAL DATA IS
      ISSUED ABOUT 10 MINUTES AFTER THE HOUR.

NMZ501-503-504-510>518-060700-
NORTHWEST PLATEAU/NORTHCENTRAL MOUNTAINS

CITY           SKY/WX    TMP DP  RH WIND       PRES   REMARKS
FARMINGTON     CLOUDY    52  45  77 CALM      29.89S
6HR MIN TEMP:  51; 6HR MAX TEMP:  56; 6HR PCP: TRACE;

LOS ALAMOS     MOCLDY    45  45 100 S6        29.98F
SANTA FE       MOCLDY    47  44  90 N3        29.96S
6HR MIN TEMP:  46; 6HR MAX TEMP:  60; 6HR PCP:  0.03;

TAOS           CLOUDY    45  36  70 SW8       29.97S
ANGEL FIRE     RAIN      42  37  83 SW7       29.95S

$$
NMZ402-403-502-505>509-060700-
WESTCENTRAL MOUNTAINS/SOUTHWEST MOUNTAINS

CITY           SKY/WX    TMP DP  RH WIND       PRES   REMARKS
GALLUP         LGT RAIN  45  43  93 S7        30.00F
6HR MIN TEMP:  45; 6HR MAX TEMP:  53; 6HR PCP:  0.27;

GRANTS         DRIZZLE   48  43  84 S6        30.02R
SILVER CITY      N/A     50  37  62 NW9       30.04S

$$
NMZ407-409-411-412-060700-
SOUTHERN DESERTS

CITY           SKY/WX    TMP DP  RH WIND       PRES   REMARKS
LORDSBURG      FAIR      54  39  58 W6        29.99S
DEMING         CLEAR     59  39  47 NW9       29.98S
6HR MIN TEMP:  58; 6HR MAX TEMP:  75;

LAS CRUCES     CLEAR     58  35  42 NW5       29.98S
HOLLOMAN AFB   PTCLDY    63  40  42 SW7       29.93S
ALAMOGORDO     PTCLDY    63  37  39 S6        29.96R
T OR C         CLEAR     56  35  45 W6        29.96S
6HR MIN TEMP:  56; 6HR MAX TEMP:  71;


$$
NMZ519>523-060700-
CENTRAL VALLEYS/CENTRAL HIGHLANDS

CITY           SKY/WX    TMP DP  RH WIND       PRES   REMARKS
ALBUQUERQUE    PTCLDY    53  46  77 S10       29.97S
6HR MIN TEMP:  53; 6HR MAX TEMP:  57; 6HR PCP: TRACE;

DOUBLE EAGLE   RAIN      49  45  84 SW13      29.97S
MORIARTY ARPT  FAIR      47  41  78 SW14      29.98F
6HR MIN TEMP:  43; 6HR MAX TEMP:  56;

CLINES CORNERS CLEAR     45  39  79 W23       29.95F
6HR MIN TEMP:  44; 6HR MAX TEMP:  49; 6HR PCP: TRACE;

BELEN          MOCLDY    52  44  73 CALM      29.98R
6HR MIN TEMP:  49; 6HR MAX TEMP:  64;

SOCORRO        CLOUDY    57  44  61 E3        29.96S
6HR MIN TEMP:  57; 6HR MAX TEMP:  62;


$$
NMZ524>526-539-540-060700-
SOUTHCENTRAL MOUNTAINS

CITY           SKY/WX    TMP DP  RH WIND       PRES   REMARKS
RUIDOSO        PTCLDY    50  34  53 NW7       30.03S

$$
NMZ527>531-060700-
NORTHEAST HIGHLANDS/NORTHEAST PLAINS

CITY           SKY/WX    TMP DP  RH WIND       PRES   REMARKS
LAS VEGAS      PTCLDY    46  38  73 S13       29.91S
6HR MIN TEMP:  45; 6HR MAX TEMP:  56; 6HR PCP: TRACE;

RATON          PTCLDY    45  42  89 N5        29.83F
6HR MIN TEMP:  44; 6HR MAX TEMP:  61;

CLAYTON        CLEAR     49  46  90 SW7       29.79F
6HR MIN TEMP:  48; 6HR MAX TEMP:  57; 6HR PCP: TRACE;


$$
NMZ532>537-060700-
EASTCENTRAL PLAINS

CITY           SKY/WX    TMP DP  RH WIND       PRES   REMARKS
TUCUMCARI      PTCLDY    55  46  71 SW10      29.83S
6HR MIN TEMP:  54; 6HR MAX TEMP:  63;

CANNON AFB     NOT AVBL
CLOVIS AIRPORT MOCLDY    54  48  82 W5        29.89S

$$
NMZ028-029-538-060700-
SOUTHEAST PLAINS

CITY           SKY/WX    TMP DP  RH WIND       PRES   REMARKS
ROSWELL        CLEAR     58  47  66 W7        29.87F
6HR MIN TEMP:  56; 6HR MAX TEMP:  76;

ARTESIA        CLEAR     61  45  55 SW9       29.89S
CARLSBAD       CLEAR     57  46  66 SW8       29.88R
6HR MIN TEMP:  56; 6HR MAX TEMP:  79;

HOBBS          CLEAR     54  52  94 S8        29.91R


$$


USA.gov is the U.S. government's official web portal to all federal, state and local government web resources and services.